Location: Apollinopolis Magna
(24.9792°N, 32.8772°E)
Time: 11:24:47
(UTC+00:00)

COSMOS 2428 - Pass Details

Date: 02 March 2021
Orbit: 845 x 858 km, 70.9° (Epoch: 16 April)

Event Time Altitude Azimuth Distance (km) Brightness Sun altitude
Rises 17:40:28 0° 200° (SSW) 3,389 6.0 -25.5°
Reaches altitude 10° 17:42:55 10° 201° (SSW) 2,456 5.3 -26.1°
Maximum altitude 17:48:33 81° 288° (WNW) 858 2.7 -27.4°
Enters shadow 17:50:26 44° 9° (N) 1,153 3.3 -27.8°
